Find REAL

NORAD ID: 64875 Int'l Des: 2025-154 Owner: DART Country: US operational
LEOCIRCULARRETROGRADESSO

Live Position

Loading 3D Globe...

About REAL

Description loading...

Upcoming Passes

Passes for default location (London). Set your location on the main map for personalized predictions.

Altitude History

Loading altitude history...

Two-Line Element Set

1 64875U 25154G 26105.69087164 .00011356 00000-0 39158-3 0 9997
2 64875 97.4082 174.0950 0001498 116.3469 243.7926 15.30156611 40488
Epoch: Apr 15, 2026 • Age: 10 hours

Current Status

Altitude 479.2 km
Velocity 7.63 km/s
Sub-Earth Point 34.83°N, 115.98°E
Launch Date Jul 23, 2025
Age 0.7 years
Type other

Technical Details

Classification Payload
Mass 5.00 kg
Dry Mass 5.00 kg
Total Mass 5.00 kg
Length 0.30 m
Diameter 0.10 m
Span 0.30 m
Shape Box
Manufacturer DART
Bus Type Cubesat 3U
Phase Status In Orbit
Owner/State DART/US

Most Searched